Weather History for Nassau, Bahamas

Change the Weather History Date:

Wednesday, August 6, 2014

  Actual Average Record
Temperature  
Mean Temperature 82 °F -  
Max Temperature 90 °F 89 °F 100 °F (2000)
Min Temperature 75 °F 75 °F 73 °F (2002)
Cooling Degree Days 18    
Growing Degree Days 32 (Base 50)    
Moisture  
Dew Point 75 °F    
Average Humidity 73    
Maximum Humidity 94    
Minimum Humidity 59    
Precipitation  
Precipitation 2.01 in 0.27 in - ()
Sea Level Pressure  
Sea Level Pressure 30.05 in    
Wind  
Wind Speed 2 mph ()    
Max Wind Speed 8 mph    
Max Gust Speed -    
Visibility 6.6 miles    
Events Rain , Thunderstorm    
Averages and records for this station are not official NWS values.
T = Trace of Precipitation, MM = Missing Value Source: Averaged Metar Reports

Daily Weather History Graph

Daily Weather History Graph

Search for Another Location

Airport:

Trip Planner

Search our weather history database for the weather conditions in past years. The results will help you decide how hot, cold, wet, or windy it might be!

Date:

Astronomy

Aug. 06, 2014 Rise Set
Actual Time 6:39 AM EDT 7:51 PM EDT
Civil Twilight 6:15 AM EDT 8:15 PM EDT
Nautical Twilight 5:46 AM EDT 8:44 PM EDT
Astronomical Twilight 5:16 AM EDT 9:14 PM EDT
Moon 4:01 PM EDT (8/6) 2:16 AM EDT (8/6)
Length of Visible Light 14h 00m
Length of Day
13h 11m
Waxing Gibbous, 77% of the Moon is Illuminated
Aug 6
Waxing Gibbous
Aug 10
Full
Aug 17
Last Quarter
Aug 25
New
Sep 2
First Quarter

Hourly Weather History & Observations

Time (EDT) Temp. Heat Index Dew Point Humidity Pressure Visibility Wind Dir Wind Speed Gust Speed Precip Events Conditions
12:00 AM 82.4 °F 88.2 °F 73.4 °F 74% 30.10 in 6.2 mi Calm Calm - N/A   Scattered Clouds
1:00 AM 82.4 °F 88.2 °F 73.4 °F 74% 30.08 in 6.2 mi Calm Calm - N/A   Scattered Clouds
2:00 AM 82 °F - 75 °F 73% 30.07 in 8 mi Calm Calm - -   Partly Cloudy
2:00 AM 82.4 °F 89.5 °F 75.2 °F 79% 30.06 in 6.2 mi Calm Calm - N/A   Scattered Clouds
3:00 AM 82.4 °F 88.2 °F 73.4 °F 74% 30.04 in 6.2 mi Calm Calm - N/A   Scattered Clouds
4:00 AM 82.4 °F 87.2 °F 71.6 °F 70% 30.04 in 6.2 mi Calm Calm - N/A   Scattered Clouds
5:00 AM 81 °F - 75 °F 78% 30.04 in 8 mi Calm Calm - -   Partly Cloudy
5:00 AM 80.6 °F 86.2 °F 75.2 °F 84% 30.04 in 6.2 mi Calm Calm - N/A   Scattered Clouds
8:00 AM 84 °F - 77 °F 74% 30.08 in 8 mi West 6.9 mph - - Rain Light Rain Showers
8:00 AM 84.2 °F 94.1 °F 77.0 °F 79% 30.07 in 6.2 mi West 6.9 mph - N/A Rain Light Rain Showers
8:52 AM 86.0 °F 95.1 °F 75.2 °F 70% 30.08 in 6.2 mi Variable 2.3 mph - N/A   Scattered Clouds
9:00 AM 86.0 °F 95.1 °F 75.2 °F 70% 30.08 in 6.2 mi Variable 2.3 mph - N/A   Scattered Clouds
10:00 AM 86.0 °F 93.4 °F 73.4 °F 66% 30.09 in 6.2 mi South 3.5 mph - N/A   Mostly Cloudy
11:00 AM 85 °F - 76 °F 68% 30.09 in 8 mi East 4.6 mph - - Rain Light Rain Showers
11:00 AM 84.2 °F 94.1 °F 77.0 °F 79% 30.09 in 6.2 mi East 4.6 mph - N/A Rain Light Rain Showers
12:00 PM 75.2 °F - 73.4 °F 94% 30.11 in 0.5 mi SW 3.5 mph - N/A Rain , Thunderstorm Thunderstorms and Rain
1:00 PM 78.8 °F - 75.2 °F 89% 30.09 in 6.2 mi South 3.5 mph - N/A   Scattered Clouds
2:00 PM 88 °F - 76 °F 59% 30.07 in 9 mi East 3.5 mph - -   Partly Cloudy
2:00 PM 87.8 °F 97.6 °F 75.2 °F 66% 30.07 in 6.2 mi East 3.5 mph - N/A   Partly Cloudy
3:00 PM 87.8 °F 97.6 °F 75.2 °F 66% 30.04 in 6.2 mi Variable 4.6 mph - N/A   Partly Cloudy
4:00 PM 87.8 °F 97.6 °F 75.2 °F 66% 30.02 in 6.2 mi NNE 8.1 mph - N/A   Scattered Clouds
5:00 PM 88 °F - 78 °F 64% 30.02 in 9 mi NNE 6.9 mph - -   Mostly Cloudy
5:00 PM 87.8 °F 99.7 °F 77.0 °F 70% 30.02 in 6.2 mi NNE 6.9 mph - N/A   Mostly Cloudy
6:00 PM 86.0 °F 95.1 °F 75.2 °F 70% 30.02 in 6.2 mi Variable 5.8 mph - N/A   Mostly Cloudy
7:00 PM 86.0 °F 95.1 °F 75.2 °F 70% 30.01 in 6.2 mi ENE 4.6 mph - N/A   Mostly Cloudy
8:00 PM 86 °F - 77 °F 69% 30.01 in 9 mi ENE 2.3 mph - -   Scattered Clouds
8:00 PM 86.0 °F 96.9 °F 77.0 °F 74% 30.01 in 6.2 mi ENE 2.3 mph - N/A   Partly Cloudy
9:00 PM 84.2 °F 92.3 °F 75.2 °F 74% 30.03 in 6.2 mi East 2.3 mph - N/A   Partly Cloudy
10:00 PM 84.2 °F 92.3 °F 75.2 °F 74% 30.03 in 6.2 mi East 3.5 mph - N/A   Partly Cloudy
11:00 PM 84 °F - 77 °F 73% 30.05 in 8 mi East 3.5 mph - -   Scattered Clouds
11:00 PM 84.2 °F 94.1 °F 77.0 °F 79% 30.05 in 6.2 mi East 3.5 mph - N/A   Partly Cloudy